This is the latest recevied weather packets stored in our database for station/object GW4003. If no packets are shown the sender has not sent any weather packets the latest 1 day(s).
| Time | Temp. | Humidity | Pressure | Rain* | Wind** | Luminosity | Snow |
|---|---|---|---|---|---|---|---|
| 1778090428 | 0.56° C | 90% | 1022 hPa | 1.78 mm | - | - | - |
| 1778089215 | 0° C | 90% | 1022 hPa | 1.27 mm | - | - | - |
| 1778088305 | 0° C | 91% | 1022 hPa | 1.52 mm | - | - | - |
| 1778087092 | 0° C | 90% | 1021.7 hPa | 1.78 mm | - | - | - |
| 1778086183 | 0.56° C | 91% | 1021.5 hPa | 1.78 mm | - | - | - |
| 1778085273 | 0.56° C | 91% | 1021 hPa | 1.78 mm | - | - | - |
| 1778084970 | 0.56° C | 91% | 1020.9 hPa | 1.52 mm | - | - | - |
| 1778084667 | 0.56° C | 91% | 1020.8 hPa | 1.27 mm | - | - | - |
| 1778083454 | 0.56° C | 91% | 1020.6 hPa | 1.02 mm | - | - | - |
| 1778082241 | 0.56° C | 91% | 1020.8 hPa | 0.76 mm | - | - | - |
| 1778081028 | 0.56° C | 91% | 1020.4 hPa | 0.76 mm | - | - | - |
| 1778080725 | 0.56° C | 91% | 1020.5 hPa | 0.51 mm | - | - | - |
| 1778079208 | 0° C | 91% | 1020.2 hPa | 0.51 mm | - | - | - |
| 1778078905 | 0° C | 91% | 1020.1 hPa | 0.51 mm | - | - | - |
| 1778078297 | 0° C | 91% | 1020.1 hPa | 0.76 mm | - | - | - |
| 1778077994 | 0° C | 91% | 1020.1 hPa | 0.51 mm | - | - | - |
| 1778076780 | 0° C | 91% | 1019.9 hPa | 0.51 mm | - | - | - |
| 1778076477 | 0° C | 91% | 1019.9 hPa | 0.25 mm | - | - | - |
| 1778073746 | 0° C | 91% | 1019.6 hPa | 0.25 mm | - | - | - |
| 1778072836 | 0° C | 91% | 1019.2 hPa | 0.25 mm | - | - | - |
| 1778072532 | 0° C | 91% | 1019.1 hPa | 0.25 mm | - | - | - |
| 1778071622 | 0° C | 91% | 1018.8 hPa | 0.25 mm | - | - | - |
| 1778071319 | 0° C | 91% | 1018.6 hPa | 0.25 mm | - | - | - |
| 1778070712 | 0° C | 91% | 1018.6 hPa | 0.25 mm | - | - | - |
| 1778069196 | 0° C | 91% | 1018.5 hPa | 0.25 mm | - | - | - |
* Rain latest hour (hover to see other rain measurements)
** Current wind speed in m/s (hover to see current wind gust speed)